Back to catalog

CZ-6A DEB

AliveSSO
NORAD 54958·DEBRIS·🇨🇳 China

Launched Nov 11, 2022 from Taiyuan Satellite Launch Center

Loading…

Next Passes (next 24 hours)

TLE

FreshSource: Space-Track

Epoch: Sep 14, 2026, 11:04 UTC

1 54958U 22151SX  26257.46128314  .00003353  00000-0  14407-2 0  9995
2 54958  98.8180 267.8079 0050580  47.6176 312.9268 14.24688188198127

Track CZ-6A DEB in real time with AllMySat

Download on the App Store